| time (UTC) | temp F | wind direction | speed MPH | gust MPH | rain 1hr in | rain 24hr in | rain mn in | humidity % | barometer mb |
| 20260504044604 | 59 | 242 | 6.0 | 12.0 | 0.00 | 0.00 | 0.00 | 46 | 1017.4 |
| 20260504043102 | 59 | 242 | 6.0 | 12.0 | 0.00 | 0.00 | 0.00 | 46 | 1017.4 |
| 20260504041601 | 59 | 259 | 4.0 | 11.0 | 0.00 | 0.00 | 0.00 | 46 | 1017.4 |
| 20260504040106 | 59 | 212 | 5.0 | 10.0 | 0.00 | 0.00 | 0.00 | 46 | 1017.4 |
| 20260504034616 | 59 | 227 | 4.0 | 8.0 | 0.00 | 0.00 | 0.00 | 45 | 1017.4 |
| 20260504033128 | 60 | 234 | 5.0 | 9.0 | 0.00 | 0.00 | 0.00 | 45 | 1017.4 |
| 20260504031604 | 60 | 201 | 5.0 | 11.0 | 0.00 | 0.00 | 0.00 | 44 | 1017.4 |
| 20260504030104 | 60 | 209 | 2.0 | 6.0 | 0.00 | 0.00 | 0.00 | 44 | 1017.4 |
| 20260504024558 | 61 | 197 | 3.0 | 8.0 | 0.00 | 0.00 | 0.00 | 43 | 1017.4 |
| 20260504023105 | 61 | 206 | 3.0 | 8.0 | 0.00 | 0.00 | 0.00 | 42 | 1017.4 |
| 20260504021557 | 62 | 197 | 3.0 | 6.0 | 0.00 | 0.00 | 0.00 | 41 | 1017.4 |
| 20260504020100 | 62 | 237 | 4.0 | 10.0 | 0.00 | 0.00 | 0.00 | 41 | 1017.4 |
| 20260504014600 | 62 | 211 | 3.0 | 7.0 | 0.00 | 0.00 | 0.00 | 39 | 1017.4 |
| 20260504013110 | 63 | 217 | 2.0 | 4.0 | 0.00 | 0.00 | 0.00 | 38 | 1017.4 |
| 20260504011559 | 64 | 223 | 2.0 | 5.0 | 0.00 | 0.00 | 0.00 | 36 | 1017.4 |
| 20260504010113 | 65 | 223 | 2.0 | 10.0 | 0.00 | 0.00 | 0.00 | 34 | 1017.4 |
| 20260504004624 | 66 | 229 | 3.0 | 8.0 | 0.00 | 0.00 | 0.00 | 33 | 1017.4 |
| 20260504003059 | 66 | 229 | 4.0 | 12.0 | 0.00 | 0.00 | 0.00 | 32 | 1017.4 |
| 20260504001612 | 67 | 225 | 5.0 | 12.0 | 0.00 | 0.00 | 0.00 | 31 | 1017.4 |
| 20260504000100 | 67 | 260 | 4.0 | 16.0 | 0.00 | 0.00 | 0.00 | 31 | 1017.4 |
| 20260503234557 | 68 | 238 | 10.0 | 19.0 | 0.00 | 0.00 | 0.00 | 30 | 1017.4 |
| 20260503233100 | 68 | 248 | 8.0 | 18.0 | 0.00 | 0.00 | 0.00 | 30 | 1017.4 |
| 20260503231559 | 68 | 236 | 8.0 | 21.0 | 0.00 | 0.00 | 0.00 | 30 | 1017.4 |
| 20260503230103 | 68 | 213 | 9.0 | 20.0 | 0.00 | 0.00 | 0.00 | 30 | 1017.4 |
| 20260503224600 | 68 | 193 | 9.0 | 20.0 | 0.00 | 0.00 | 0.00 | 30 | 1017.4 |
| 20260503223100 | 68 | 186 | 7.0 | 20.0 | 0.00 | 0.00 | 0.00 | 30 | 1017.4 |
| 20260503221602 | 68 | 170 | 8.0 | 17.0 | 0.00 | 0.00 | 0.00 | 30 | 1017.4 |
| 20260503220059 | 67 | 212 | 11.0 | 23.0 | 0.00 | 0.00 | 0.00 | 29 | 1017.4 |
| 20260503214600 | 67 | 228 | 11.0 | 24.0 | 0.00 | 0.00 | 0.00 | 30 | 1017.4 |
| 20260503213108 | 66 | 238 | 10.0 | 28.0 | 0.00 | 0.00 | 0.00 | 31 | 1017.4 |
| 20260503211559 | 66 | 223 | 14.0 | 31.0 | 0.00 | 0.00 | 0.00 | 29 | 1017.4 |
| 20260503210111 | 65 | 217 | 13.0 | 29.0 | 0.00 | 0.00 | 0.00 | 30 | 1017.4 |
| 20260503204609 | 66 | 173 | 12.0 | 22.0 | 0.00 | 0.00 | 0.00 | 29 | 1017.4 |
| 20260503203105 | 65 | 265 | 6.0 | 29.0 | 0.00 | 0.00 | 0.00 | 30 | 1017.4 |
| 20260503201604 | 64 | 196 | 8.0 | 20.0 | 0.00 | 0.00 | 0.00 | 36 | 1017.4 |
| 20260503194600 | 62 | 188 | 9.0 | 27.0 | 0.00 | 0.00 | 0.00 | 40 | 1017.4 |
| 20260503193101 | 62 | 260 | 11.0 | 21.0 | 0.00 | 0.00 | 0.00 | 36 | 1017.4 |
| 20260503191632 | 61 | 244 | 8.0 | 23.0 | 0.00 | 0.00 | 0.00 | 38 | 1017.4 |
| 20260503190059 | 60 | 192 | 11.0 | 32.0 | 0.00 | 0.00 | 0.00 | 37 | 1017.4 |
| 20260503184601 | 59 | 179 | 9.0 | 25.0 | 0.00 | 0.00 | 0.00 | 38 | 1017.4 |
| 20260503183115 | 59 | 169 | 12.0 | 27.0 | 0.00 | 0.00 | 0.00 | 38 | 1017.4 |
| 20260503181602 | 59 | 205 | 11.0 | 27.0 | 0.00 | 0.00 | 0.00 | 40 | 1017.4 |
| 20260503180100 | 57 | 170 | 8.0 | 24.0 | 0.00 | 0.00 | 0.00 | 42 | 1017.4 |
| 20260503174558 | 57 | 238 | 11.0 | 28.0 | 0.00 | 0.00 | 0.00 | 42 | 1017.4 |
| 20260503173119 | 57 | 227 | 13.0 | 26.0 | 0.00 | 0.00 | 0.00 | 44 | 1017.4 |
| 20260503171559 | 55 | 175 | 10.0 | 30.0 | 0.00 | 0.00 | 0.00 | 47 | 1017.4 |
| 20260503120124 | 48 | 250 | 10.0 | 21.0 | 0.00 | 0.00 | 0.00 | 45 | 1017.4 |
| 20260503100107 | 46 | 250 | 7.0 | 14.0 | 0.00 | 0.00 | 0.00 | 44 | 1017.4 |
| 20260503090105 | 46 | 210 | 4.0 | 14.0 | 0.00 | 0.00 | 0.00 | 42 | 1017.4 |
| 20260503081559 | 46 | 200 | 5.0 | 11.0 | 0.00 | 0.00 | 0.00 | 41 | 1017.4 |